Weather observations for the past three days for
Ocean County Airport
Imperial (Metric)
Date Time (edt) Wind (mph) Vis. (mi.) Weather Sky Cond. Temperature (ºF) Relative Humidity Wind Chill (°F) Heat Index (°F) Pressure Precipitation (in)
Air Dwpt 6 hour altimeter (in) sea level (mb) 1 hr 3 hr 6 hr
Max. Min.
03 06:56 W 5 10.00 Light Rain BKN100 69.8 0 0% 30 1016.1 0.04
03 05:56 S 6 10.00 Rain BKN075 OVC095 69.8 0 0% 30.03 1017.1 0.08
03 04:56 W 9 10.00 Light Rain SCT003 BKN041 OVC080 71.6 0 0% 30.04 1017.6 0.2
03 03:56 Calm 10.00 Overcast OVC003 71.6 0 0% 30.02 1016.9 0.15
03 02:56 W 6 7.00 Thunderstorm Rain OVC005 71.6 0 0% 30.08 1018.8 0.05
03 01:56 N 8 8.00 Light Rain OVC003 71.6 0 72 71.1 0% 30.07 1018.5
03 00:56 Calm 10.00 Overcast OVC005 71.6 0 0% 30.06 1018.4
02 23:56 NW 3 10.00 Overcast OVC007 71.6 0 0% 30.08 1018.9
02 22:56 Calm 10.00 Overcast OVC007 71.6 0 0% 30.08 1018.9
02 21:56 Calm 10.00 Overcast OVC011 71.6 0 0% 30.08 1018.9
02 20:56 E 3 10.00 Overcast OVC013 72 72 100% 30.09 1019.4
02 19:56 E 3 10.00 Overcast OVC019 72 72 75 71.1 100% 30.07 1018.7
02 18:56 E 3 10.00 Overcast OVC012 71.1 71.1 100% 30.08 1018.9
02 17:56 E 5 10.00 Overcast OVC014 72 72 100% 30.1 1019.7
02 16:56 E 3 10.00 Overcast OVC014 73 73 100% 30.09 1019.2
02 15:56 E 5 10.00 Overcast OVC016 73.9 72 94% 30.1 1019.5
02 14:56 E 5 10.00 Overcast OVC016 73.9 71.1 91% 30.11 1020.0
02 13:56 NE 8 10.00 Overcast OVC016 73.9 70 75 70 88% 30.13 1020.6 0.01
02 12:56 NE 8 10.00 Overcast OVC014 73.9 70 88% 30.12 1020.4
02 11:56 E 9 10.00 Overcast OVC014 73.9 73 97% 30.13 1020.5
02 10:56 E 6 10.00 Overcast OVC012 71.6 0 0% 30.13 1020.6 0.01
02 09:56 NE 5 5.00 Overcast with Haze BKN003 OVC010 71.6 0 0% 30.13 1020.7 0.01
02 08:56 NE 7 3.00 Fog/Mist OVC003 69.8 0 0% 30.11 1020.0
02 07:56 NE 8 2.00 Light Rain OVC003 69.8 0 71.1 70 0% 30.11 1019.7 0.01 0.01
02 06:56 NE 7 3.00 Fog/Mist OVC005 69.8 0 0% 30.1 1019.6
02 05:56 NE 6 4.00 Overcast with Haze OVC005 71.6 0 0% 30.08 1019.0
02 04:56 NE 7 3.00 Fog/Mist OVC005 71.6 0 0% 30.07 1018.4
02 03:56 NE 5 3.00 Fog/Mist OVC003 71.6 0 0% 30.06 1018.1
02 02:56 NE 9 3.00 Fog/Mist OVC003 71.6 0 0% 30.05 1017.8
02 00:56 NE 10 6.00 Overcast with Haze OVC003 71.6 0 0% 30.04 1017.6
01 23:56 N 7 6.00 Overcast with Haze OVC005 71.6 0 0% 30.04 1017.3
01 22:56 NW 3 10.00 Mostly Cloudy BKN014 69.8 0 0% 30.03 1017.0 0.01 0.6
01 21:56 Calm 10.00 Thunderstorm Rain FEW037 SCT065 BKN080 71.6 0 0% 30 1015.9 0.46
01 20:56 NE 21 G 30 5.00 Thunderstorm Heavy Rain Fog/Mist and Breezy FEW012 BKN039 OVC050 72 72 100% 30 1016.1 0.13
01 19:56 Calm 10.00 Mostly Cloudy FEW043 SCT055 BKN095 79 78.1 91.9 79 97% 83 29.94 1014.1
01 18:56 S 3 10.00 A Few Clouds FEW046 81 75 82% 87 29.94 1014.0
01 17:56 W 5 10.00 Mostly Cloudy SCT046 BKN060 88 73 61% 96 29.94 1014.0
01 16:56 W 6 10.00 Partly Cloudy SCT080 90 72 56% 97 29.94 1014.0
01 15:56 SW 10 10.00 A Few Clouds FEW085 91 71.1 52% 98 29.94 1014.0
01 14:56 W 8 10.00 Fair CLR 90 73.9 59% 99 29.95 1014.3
01 13:56 SW 7 10.00 A Few Clouds FEW110 88 75 88 75 66% 98 29.97 1015.1
01 12:56 W 7 10.00 Fair CLR 87.1 75 67% 97 29.99 1015.7
01 11:56 W 8 10.00 Partly Cloudy FEW025 SCT120 87.1 73.9 65% 95 30.01 1016.3
01 10:56 W 7 10.00 A Few Clouds FEW055 86 75 70% 95 30.01 1016.3
01 09:56 W 6 10.00 Fair CLR 82 75 79% 89 30.01 1016.3
01 08:56 SW 7 10.00 Fair CLR 78.1 78.1 100% 81 30.02 1016.6
01 07:56 SW 5 9.00 Mostly Cloudy BKN004 BKN100 75.2 0 75 70 0% 30.02 1016.9
01 06:56 SW 6 7.00 Overcast OVC004 73.4 0 0% 30.03 1017.0
01 05:56 SW 5 10.00 Partly Cloudy FEW004 SCT080 SCT100 71.6 0 0% 30.01 1016.4
01 04:56 SW 5 10.00 Overcast OVC100 71.6 0 0% 30.02 1016.9
01 03:56 S 5 8.00 Partly Cloudy SCT110 71.6 0 0% 30.03 1017.0
01 02:56 Calm 10.00 Light Rain FEW060 OVC090 71.6 0 0% 30.04 1017.3
01 01:56 Calm 10.00 Mostly Cloudy BKN075 69.8 0 72 69.1 0% 30.06 1018.0
01 00:56 Calm 10.00 Partly Cloudy SCT013 69.8 0 0% 30.07 1018.6
31 23:56 Calm 10.00 Fair CLR 69.8 0 0% 30.08 1018.8
31 22:56 Calm 10.00 Fair CLR 69.8 0 0% 30.08 1019.1
31 21:56 Calm 10.00 Fair CLR 69.8 0 0% 30.09 1019.3
31 20:56 Calm 10.00 Mostly Cloudy BKN100 71.1 71.1 100% 30.09 1019.3
31 19:56 Calm 10.00 Mostly Cloudy BKN095 72 72 79 72 100% 30.08 1019.0
31 18:56 S 5 10.00 Mostly Cloudy BKN110 73.9 71.1 91% 30.09 1019.3
31 17:56 S 5 10.00 Mostly Cloudy BKN100 75 69.1 82% 75 30.1 1019.6
31 16:56 SE 6 10.00 Fair CLR 75 68 79% 76 30.1 1019.6
31 15:56 E 6 10.00 Mostly Cloudy BKN090 77 68 74% 79 30.11 1020.0
31 14:56 E 3 10.00 Mostly Cloudy SCT070 BKN100 78.1 66.9 69% 80 30.12 1020.3
31 13:56 NE 5 10.00 Overcast BKN024 OVC029 77 66.9 78.1 70 71% 79 30.13 1020.5
31 12:56 NE 6 10.00 Overcast BKN028 OVC110 75.9 66 72% 77 30.13 1020.7
31 11:56 NE 7 10.00 Overcast BKN018 OVC024 75 66.9 76% 76 30.14 1020.9
31 10:56 NE 8 10.00 Partly Cloudy SCT014 73.9 69.1 85% 30.14 1020.9
31 09:56 NE 3 10.00 Fair CLR 73 72 96% 30.14 1020.8
31 08:56 NE 3 10.00 Fair CLR 72 72 100% 30.13 1020.6
31 07:56 N 5 10.00 Fair CLR 70 70 70 66.9 100% 30.13 1020.6 0.01
Date Time (edt) Wind (mph) Vis. (mi.) Weather Sky Cond. Air Dwpt Max. Min. Relative Humidity Wind Chill (°F) Heat Index (°F) altimeter (in) sea level (mb) 1 hr 3 hr 6 hr
6 hour
Temperature (ºF) Pressure Precipitation (in)